Simultaneous Nadir Overpasses (SNOs) Predictions

Prediction of SNOs between GOES-15 and LANDSAT-8 Satellite Orbit:

Table of predicted SNOs for the next 14.0 days since TLE Epoch: 4/13/2024
Index Date Time (GOES-15) GOES-15 Lat,Lon LANDSAT-8 Lat,Lon Distance(km) Time Diff (sec)
1 04/14/2024 18:07:58 0.12, 61.24 0.14, 61.27 4.43 80
2 04/16/2024 17:53:05 0.13, 61.26 0.77, 64.23 338.24 80
3 04/17/2024 06:14:20 -0.13, 61.31 0.33, 59.07 254.18 80
4 04/19/2024 06:04:46 -0.13, 61.33 -0.25, 62.04 80.10 80
5 04/21/2024 05:52:33 -0.13, 61.36 -0.92, 65.00 414.28 80
6 04/21/2024 18:13:57 0.13, 61.31 -0.16, 59.80 171.14 80
7 04/23/2024 17:59:03 0.14, 61.34 0.46, 62.76 162.73 80
8 04/24/2024 06:20:17 -0.14, 61.40 0.68, 57.62 430.09 80
9 04/25/2024 17:46:48 0.14, 61.37 1.05, 65.74 495.86 80
10 04/26/2024 06:08:03 -0.14, 61.43 0.04, 60.58 97.11 80
